Location: Newark
(47.4000°N, 7.5833°E)
Time: 01:56:40
(UTC+00:00)

N. Korean satellite - Pass Details

Date: 31 January 2020
Orbit: 456 x 505 km, 97.2° (Epoch: 21 February)

Event Time Altitude Azimuth Distance (km) Brightness Sun altitude
Rises 04:42:16 0° 23° (NNE) 2,560 10.5 -23.0°
Reaches altitude 10° 04:44:33 10° 35° (NE) 1,684 9.7 -22.6°
Maximum altitude 04:47:42 27° 96° (E) 966 8.8 -22.1°
Drops below altitude 10° 04:50:51 10° 156° (SSE) 1,693 9.6 -21.6°
Sets 04:53:09 0° 168° (SSE) 2,577 10.4 -21.2°
